Regional Weather Roundup
Issued by NWS

Home | Current Version | Previous Version | Graphics & Text | Print | Product List | Glossary On
Versions: 1 2 3 4 5 6 7 8 9 10 11 12 13 14 15 16 17 18 19 20 21 22 23 24 25 26 27 28 29 30 31 32 33 34 35 36 37 38 39 40 41 42 43 44 45 46 47 48 49 50
000
ASUS44 KMEG 221210
RWRTN
TENNESSEE HOURLY STATE WEATHER ROUNDUP
NATIONAL WEATHER SERVICE MEMPHIS TN
700 AM CDT THU JUN 22 2017

TNZ002-004-019-021-049-052-054-088>092-221300-
WEST TENNESSEE

CITY           SKY/WX    TMP DP  RH WIND       PRES   REMARKS
MEMPHIS INTL   CLOUDY    76  73  91 SE9       29.85S
JACKSON        CLOUDY    74  72  93 SE6       29.90S
COVINGTON      CLOUDY    73  72  94 SE12      29.87S
UNION CITY     CLOUDY    73  70  88 E7        29.90S
BOLIVAR        CLOUDY    73  72  94 E8        29.89S
PARIS          PTSUNNY   73  70  88 SE8       29.93S
HUNTINGDON     CLOUDY    73  70  88 SE7       29.92S
LEXINGTON      CLOUDY    72  70  94 SE6       29.93S
SELMER         CLOUDY    73  72  94 SE8       29.91S
SAVANNAH       CLOUDY    73  72  94 SE7G15    29.92S
$$

TNZ008-025-027-028-033-062-065-066-221300-
NORTH MIDDLE TENNESSEE

CITY           SKY/WX    TMP DP  RH WIND       PRES   REMARKS
NASHVILLE      LGT RAIN  72  69  90 S8        30.03R FOG
PORTLAND       CLOUDY    73  68  83 S9        30.01S
CLARKSVILLE    CLOUDY    73  67  81 SE6       29.97S
SMYRNA         RAIN      71  69  93 S8        30.04R FOG
COOKEVILLE     MOSUNNY   72  68  88 S6        30.06R
GALLATIN       MOSUNNY   72  70  94 SE3       30.05R
CROSSVILLE     CLOUDY    68  64  87 S5        30.12R
$$

TNZ061-075-076-078-094-096-097-221300-
SOUTH MIDDLE TENNESSEE

CITY           SKY/WX    TMP DP  RH WIND       PRES   REMARKS
TULLAHOMA      PTSUNNY   70  68  94 SE5       30.07R
WINCHESTER     CLOUDY    70  68  94 SE7       30.05F
MCMINNVILLE    CLOUDY    70  70 100 CALM      30.07R
COLUMBIA       PTSUNNY   72  72 100 SE7       29.98S
SHELBYVILLE    CLOUDY    70  70 100 VRB5      30.04R FOG
$$

TNZ017-018-042-046-047-221300-
NORTHEAST TENNESSEE

CITY           SKY/WX    TMP DP  RH WIND       PRES   REMARKS
TRI CITIES     CLOUDY    67  65  93 CALM      30.14R
ELIZABETHTON   CLOUDY    68  64  88 E5        30.14S
$$

TNZ012-013-036-069-073-074-221300-
CENTRAL EAST TENNESSEE

CITY           SKY/WX    TMP DP  RH WIND       PRES   REMARKS
KNOXVILLE      CLOUDY    71  67  87 CALM      30.09R
OAK RIDGE      CLOUDY    72  67  84 CALM      30.10R
DOWNTOWN KNOXV PTSUNNY   70  70 100 CALM      30.09R
GATLINBURG     PTSUNNY   68  66  94 CALM      30.10R
MORRISTOWN     CLOUDY    70  68  94 E3        30.11R
JACKSBORO      CLOUDY    70  68  94 CALM      30.13R
$$

TNZ083-085-099-221300-
SOUTHEAST TENNESSEE

CITY           SKY/WX    TMP DP  RH WIND       PRES   REMARKS
CHATTANOOGA    RAIN      71  69  93 CALM      30.08S FOG
$$

SKY/WX REPORTED AS FAIR MEANS FEW OR NO CLOUDS BELOW
12 THOUSAND FEET.




USA.gov is the U.S. government's official web portal to all federal, state and local government web resources and services.